This is the latest recevied weather packets stored in our database for station/object S50ME-11. If no packets are shown the sender has not sent any weather packets the latest 10 day(s).
| Time | Temp. | Humidity | Pressure | Rain* | Wind** | Luminosity | Snow |
|---|---|---|---|---|---|---|---|
| 1777383039 | 27.78° C | 35% | 1018.6 hPa | - | - | - | - |
| 1777383033 | 27.78° C | 35% | 1018.6 hPa | - | - | - | - |
| 1777382136 | 27.22° C | 36% | 1019.3 hPa | - | - | - | - |
| 1777382133 | 27.22° C | 36% | 1019.3 hPa | - | - | - | - |
| 1777381236 | 27.22° C | 36% | 1019.4 hPa | - | - | - | - |
| 1777381233 | 27.22° C | 36% | 1019.4 hPa | - | - | - | - |
| 1777380794 | 27.22° C | 36% | 1019.7 hPa | - | - | - | - |
| 1777380336 | 27.22° C | 36% | 1019.7 hPa | - | - | - | - |
| 1777380332 | 27.22° C | 36% | 1019.7 hPa | - | - | - | - |
| 1777379940 | 27.78° C | 35% | 1019.7 hPa | - | - | - | - |
| 1777379437 | 27.22° C | 35% | 1019.8 hPa | - | - | - | - |
| 1777379432 | 27.22° C | 35% | 1019.8 hPa | - | - | - | - |
| 1777378537 | 27.78° C | 35% | 1019.7 hPa | - | - | - | - |
| 1777378531 | 27.78° C | 35% | 1019.7 hPa | - | - | - | - |
| 1777377754 | 28.33° C | 35% | 1020.3 hPa | - | - | - | - |
| 1777377644 | 28.33° C | 35% | 1020.3 hPa | - | - | - | - |
| 1777377640 | 28.33° C | 35% | 1020.3 hPa | - | - | - | - |
| 1777376801 | 28.33° C | 35% | 1020.4 hPa | - | - | - | - |
| 1777376743 | 28.33° C | 35% | 1020.4 hPa | - | - | - | - |
| 1777376740 | 28.33° C | 35% | 1020.4 hPa | - | - | - | - |
| 1777375874 | 27.78° C | 35% | 1019.3 hPa | - | - | - | - |
| 1777375842 | 27.78° C | 35% | 1019.3 hPa | - | - | - | - |
| 1777375839 | 27.78° C | 35% | 1019.3 hPa | - | - | - | - |
| 1777374941 | 26.67° C | 37% | 1020.2 hPa | - | - | - | - |
| 1777374938 | 26.67° C | 37% | 1020.2 hPa | - | - | - | - |
* Rain since midnight (hover to see other rain measurements)
** Current wind speed in m/s (hover to see current wind gust speed)